Date String (YYYY-MM-DD hh:mm:ss) UTC,Instrument flags,Ambient pressure (hPa),Sample flow (lpm),Bypass flow (lpm),Sample temperature (°C),Ambient temperature (°C),ASC tube jacket temperature (°C),LED temperature (°C),Box temperature (°C),Sample RH (%),Span deviation,Mass concentration (μg/m³),Mass concentration (μg/m³),Mass concentration (μg/m³)
DateTimeUTC,F1_M11,P_M11,Q1_M11,Q2_M11,T1_M11,T2_M11,T3_M11,T4_M11,T5_M11,U1_M11,ZSPAN_M11,X0_M11,X2_M11,X1_M11
2021-10-03 05:00:00,,0832.2,5.00,0.00,30.2,29.3,00.0,39.3,32.0,15.7,0001.3,0010.59,0004.77,0004.15
2021-10-03 05:01:00,,0832.3,5.00,0.00,30.2,29.3,00.0,39.3,32.0,15.8,0001.5,0010.39,0004.77,0004.17
2021-10-03 05:02:00,,0832.2,5.00,0.00,30.2,29.3,00.0,39.3,32.0,15.7,0001.7,0010.12,0004.76,0004.18
2021-10-03 05:03:00,,0832.3,5.00,0.00,30.3,29.3,00.0,39.3,32.0,15.6,0001.4,0009.99,0004.73,0004.17
2021-10-03 05:04:00,,0832.3,5.00,0.00,30.3,29.3,00.0,39.3,32.0,15.7,0000.0,0009.72,0004.74,0004.18
2021-10-03 05:05:00,,0832.2,4.97,0.00,30.3,29.3,00.0,39.4,32.0,15.7,0000.0,0009.55,0004.77,0004.19
2021-10-03 05:06:00,,0832.3,5.00,0.00,30.3,29.3,00.0,39.4,32.0,15.7,0000.0,0009.62,0004.77,0004.20
2021-10-03 05:07:00,,0832.3,5.01,0.00,30.3,29.3,00.0,39.4,32.0,15.6,0000.0,0009.99,0004.80,0004.21
2021-10-03 05:08:00,,0832.3,4.99,0.00,30.3,29.3,00.0,39.4,32.0,15.7,0001.9,0010.48,0004.89,0004.22
2021-10-03 05:09:00,,0832.3,5.00,0.00,30.3,29.3,00.0,39.4,32.0,16.0,0000.8,0010.74,0004.90,0004.23
2021-10-03 05:10:00,,0832.3,4.99,0.00,30.3,29.3,00.0,39.4,32.0,15.9,0002.5,0010.94,0004.92,0004.25
2021-10-03 05:11:00,,0832.3,5.00,0.00,30.3,29.3,00.0,39.4,32.0,15.8,0002.0,0011.00,0004.93,0004.25
2021-10-03 05:12:00,,0832.3,5.01,0.00,30.3,29.4,00.0,39.4,32.0,15.9,0001.8,0010.77,0004.93,0004.25
2021-10-03 05:13:00,,0832.3,4.99,0.00,30.3,29.3,00.0,39.4,32.0,15.8,0001.6,0010.61,0004.92,0004.25
2021-10-03 05:14:00,,0832.3,5.01,0.00,30.3,29.3,00.0,39.4,32.0,15.9,0001.6,0010.10,0004.93,0004.25
2021-10-03 05:15:00,,0832.3,4.98,0.00,30.3,29.3,00.0,39.4,32.0,16.4,0001.5,0009.86,0004.91,0004.26
2021-10-03 05:16:00,,0832.3,5.01,0.00,30.3,29.3,00.0,39.4,32.0,16.3,0001.4,0010.77,0004.92,0004.27
2021-10-03 05:17:00,,0832.3,5.00,0.00,30.3,29.3,00.0,39.4,32.0,16.1,0001.5,0011.44,0004.95,0004.27
2021-10-03 05:18:00,,0832.3,5.00,0.00,30.3,29.3,00.0,39.4,32.0,16.2,0001.1,0011.41,0004.96,0004.30
2021-10-03 05:19:00,,0832.2,5.02,0.00,30.3,29.3,00.0,39.4,32.0,16.1,0001.5,0011.13,0004.93,0004.31
2021-10-03 05:20:00,,0832.3,5.00,0.00,30.3,29.3,00.0,39.4,32.1,16.2,0001.1,0011.46,0004.94,0004.32
2021-10-03 05:21:00,,0832.3,4.99,0.00,30.3,29.3,00.0,39.4,32.0,16.4,0000.8,0012.16,0004.96,0004.34
2021-10-03 05:22:00,,0832.3,5.01,0.00,30.3,29.3,00.0,39.4,32.0,16.5,0001.2,0012.84,0005.03,0004.38
2021-10-03 05:23:00,,0832.3,4.99,0.00,30.3,29.3,00.0,39.4,32.0,16.4,0001.6,0013.71,0005.09,0004.42
2021-10-03 05:24:00,,0832.3,5.00,0.00,30.3,29.3,00.0,39.4,32.1,16.5,0001.7,0013.84,0005.13,0004.48
2021-10-03 05:25:00,,0832.3,5.00,0.00,30.3,29.3,00.0,39.4,32.0,16.5,0001.8,0013.87,0005.17,0004.51
2021-10-03 05:26:00,,0832.3,4.98,0.00,30.3,29.3,00.0,39.4,32.0,16.6,0001.9,0013.90,0005.20,0004.54
2021-10-03 05:27:00,,0832.3,5.01,0.00,30.3,29.3,00.0,39.4,32.0,16.6,0002.2,0013.74,0005.22,0004.56
2021-10-03 05:28:00,,0832.3,5.00,0.00,30.3,29.3,00.0,39.4,32.0,16.6,0002.5,0013.34,0005.25,0004.59
2021-10-03 05:29:00,,0832.3,4.99,0.00,30.3,29.3,00.0,39.5,32.0,16.6,0002.7,0013.47,0005.27,0004.61
2021-10-03 05:30:00,,0832.2,5.00,0.00,30.3,29.3,00.0,39.5,32.0,16.6,0002.6,0013.90,0005.31,0004.63
2021-10-03 05:31:00,,0832.3,5.00,0.00,30.3,29.3,00.0,39.5,32.0,16.6,0002.6,0013.56,0005.33,0004.66
2021-10-03 05:32:00,,0832.3,5.00,0.00,30.3,29.3,00.0,39.5,32.0,16.6,0002.8,0012.66,0005.35,0004.67
2021-10-03 05:33:00,,0832.3,5.00,0.00,30.3,29.3,00.0,39.5,32.0,16.7,0003.2,0011.97,0005.34,0004.67
2021-10-03 05:34:00,,0832.3,5.01,0.00,30.3,29.3,00.0,39.5,32.0,16.6,0002.9,0011.17,0005.29,0004.65
2021-10-03 05:35:00,,0832.3,4.99,0.00,30.3,29.3,00.0,39.5,32.0,16.6,0003.0,0010.64,0005.26,0004.63
2021-10-03 05:36:00,,0832.3,5.00,0.00,30.3,29.3,00.0,39.5,32.0,16.6,0003.1,0010.71,0005.23,0004.63
2021-10-03 05:37:00,,0832.3,5.00,0.00,30.3,29.3,00.0,39.5,32.0,16.6,0003.0,0011.07,0005.25,0004.63
2021-10-03 05:38:00,,0832.3,4.99,0.00,30.3,29.3,00.0,39.5,32.0,16.5,0003.0,0010.65,0005.27,0004.63
2021-10-03 05:39:00,,0832.3,5.00,0.00,30.3,29.3,00.0,39.5,32.0,16.6,0002.8,0010.27,0005.27,0004.63
2021-10-03 05:40:00,,0832.3,5.00,0.00,30.3,29.3,00.0,39.5,32.0,16.5,0002.8,0009.84,0005.26,0004.63
2021-10-03 05:41:00,,0832.2,4.99,0.00,30.3,29.3,00.0,39.5,32.0,16.5,0002.7,0009.36,0005.26,0004.63
2021-10-03 05:42:00,,0832.3,5.01,0.00,30.3,29.3,00.0,39.5,32.0,16.6,0002.9,0009.37,0005.25,0004.62
2021-10-03 05:43:00,,0832.2,5.00,0.00,30.3,29.3,00.0,39.5,32.0,16.4,0002.7,0009.61,0005.22,0004.61
2021-10-03 05:44:00,,0832.2,4.99,0.00,30.3,29.3,00.0,39.5,32.0,16.5,0002.5,0009.54,0005.16,0004.59
2021-10-03 05:45:00,,0832.2,5.00,0.00,30.3,29.3,00.0,39.5,32.0,16.6,0002.3,0009.60,0005.16,0004.59
2021-10-03 05:46:00,,0832.1,5.00,0.00,30.3,29.3,00.0,39.5,32.0,16.8,0002.1,0009.61,0005.19,0004.60
2021-10-03 05:47:00,,0832.2,4.99,0.00,30.3,29.3,00.0,39.5,32.0,16.8,0002.0,0009.48,0005.18,0004.58
2021-10-03 05:48:00,,0832.1,5.00,0.00,30.3,29.3,00.0,39.5,32.0,16.6,0001.7,0009.40,0005.21,0004.57
2021-10-03 05:49:00,,0832.2,5.00,0.00,30.3,29.3,00.0,39.5,32.1,16.8,0001.6,0009.31,0005.19,0004.57
2021-10-03 05:50:00,,0832.1,4.99,0.00,30.3,29.3,00.0,39.5,32.0,16.6,0001.8,0009.46,0005.14,0004.57
2021-10-03 05:51:00,,0832.1,5.02,0.00,30.3,29.3,00.0,39.5,32.0,16.5,0002.0,0009.96,0005.15,0004.55
2021-10-03 05:52:00,,0832.2,4.99,0.00,30.3,29.3,00.0,39.5,32.0,16.5,0002.3,0009.97,0005.15,0004.56
2021-10-03 05:53:00,,0832.1,4.99,0.00,30.3,29.3,00.0,39.5,32.0,16.5,0001.9,0009.98,0005.16,0004.57
2021-10-03 05:54:00,,0832.2,5.02,0.00,30.4,29.3,00.0,39.5,32.0,16.5,0002.4,0009.72,0005.16,0004.57
2021-10-03 05:55:00,,0832.1,4.99,0.00,30.3,29.3,00.0,39.5,32.0,16.5,0002.8,0009.93,0005.21,0004.59
2021-10-03 05:56:00,,0832.1,5.00,0.00,30.3,29.3,00.0,39.5,32.0,16.5,0003.2,0009.98,0005.23,0004.59
2021-10-03 05:57:00,,0832.1,5.01,0.00,30.3,29.3,00.0,39.5,32.0,16.5,0003.2,0010.72,0005.28,0004.59
2021-10-03 05:58:00,,0832.1,4.99,0.00,30.3,29.3,00.0,39.5,32.0,16.5,0003.1,0011.16,0005.32,0004.61
2021-10-03 05:59:00,,0832.1,5.00,0.00,30.3,29.3,00.0,39.5,32.0,16.5,0003.0,0011.16,0005.29,0004.61
